When you browse on this site, cookies collect data to enhance your experience and personalize the content and advertising you see.
Visit our Privacy Policy to learn more. By continuing to use the site, you agree to this use of cookies and data.
  • In Austria
  • List of Countries
  • For 7 days
  • Water Temperature
  • Satellite Maps
  • Weather Map
  • News
  • Weather Widgets
  • user-avatar
    Login

    Hourly Weather Elbasan

    Today, 19 April, Friday

    Time Temperature Precipitation Wind Pressure Humidity
    00:00 +9°C° 0 mm 2 mps 741 mmHg 70%
    01:00 +9°C° 0 mm 2 mps 741 mmHg 73%
    02:00 +9°C° 0 mm 2 mps 741 mmHg 73%
    03:00 +9°C° 0 mm 2 mps 741 mmHg 74%
    04:00 +8°C° 0 mm 2 mps 741 mmHg 75%
    05:00 +9°C° 0 mm 2 mps 741 mmHg 72%
    06:00 +12°C° 0 mm 2 mps 742 mmHg 69%
    07:00 +13°C° 0 mm 2 mps 742 mmHg 66%
    08:00 +15°C° 0 mm 1 mps 742 mmHg 58%
    09:00 +18°C° 0 mm 1 mps 742 mmHg 50%
    10:00 +18°C° 0 mm 0 mps 742 mmHg 42%
    11:00 +20°C° 0 mm 1 mps 742 mmHg 42%
    12:00 +19°C° 0 mm 2 mps 741 mmHg 43%
    13:00 +19°C° 0 mm 3 mps 741 mmHg 43%
    14:00 +19°C° 0 mm 3 mps 741 mmHg 47%
    15:00 +18°C° 0 mm 3 mps 741 mmHg 51%
    16:00 +18°C° 0 mm 3 mps 740 mmHg 54%
    17:00 +16°C° 0 mm 3 mps 740 mmHg 63%
    18:00 +14°C° 0 mm 2 mps 740 mmHg 72%
    19:00 +13°C° 0 mm 1 mps 740 mmHg 81%
    20:00 +12°C° 0 mm 1 mps 741 mmHg 82%
    21:00 +12°C° 0 mm 1 mps 741 mmHg 83%
    22:00 +11°C° 0 mm 1 mps 741 mmHg 83%
    23:00 +11°C° 0 mm 1 mps 741 mmHg 82%

    Tomorrow, 20 April, Saturday

    Time Temperature Precipitation Wind Pressure Humidity
    00:00 +11°C° 0 mm 1 mps 741 mmHg 80%
    01:00 +11°C° 0 mm 1 mps 741 mmHg 78%
    02:00 +10°C° 0 mm 1 mps 740 mmHg 77%
    03:00 +10°C° 0 mm 1 mps 740 mmHg 76%
    04:00 +9°C° 0 mm 2 mps 740 mmHg 75%
    05:00 +10°C° 0 mm 2 mps 740 mmHg 72%
    06:00 +13°C° 0 mm 2 mps 740 mmHg 68%
    07:00 +14°C° 0 mm 2 mps 740 mmHg 65%
    08:00 +15°C° 0 mm 2 mps 740 mmHg 57%
    09:00 +17°C° 0 mm 2 mps 740 mmHg 50%
    10:00 +19°C° 0 mm 2 mps 740 mmHg 42%
    11:00 +19°C° 0 mm 2 mps 740 mmHg 41%
    12:00 +20°C° 0 mm 2 mps 740 mmHg 40%
    13:00 +20°C° 0 mm 2 mps 740 mmHg 39%
    14:00 +20°C° 0 mm 2 mps 740 mmHg 40%
    15:00 +20°C° 0 mm 2 mps 740 mmHg 42%
    16:00 +19°C° 0 mm 2 mps 740 mmHg 43%
    17:00 +18°C° 0 mm 2 mps 740 mmHg 49%
    18:00 +16°C° 0 mm 2 mps 740 mmHg 54%
    19:00 +15°C° 0 mm 2 mps 740 mmHg 60%
    20:00 +14°C° 0 mm 2 mps 740 mmHg 61%
    21:00 +13°C° 0 mm 2 mps 741 mmHg 62%
    22:00 +13°C° 0 mm 2 mps 741 mmHg 64%
    23:00 +12°C° 0 mm 2 mps 741 mmHg 65%

    Day after tomorrow, 21 April, Sunday

    Time Temperature Precipitation Wind Pressure Humidity
    00:00 +12°C° 0 mm 2 mps 741 mmHg 66%
    01:00 +12°C° 0 mm 2 mps 741 mmHg 66%
    02:00 +10°C° 0 mm 2 mps 741 mmHg 67%
    03:00 +10°C° 0 mm 2 mps 741 mmHg 68%
    04:00 +9°C° 0 mm 2 mps 740 mmHg 69%
    05:00 +12°C° 0 mm 2 mps 741 mmHg 66%
    06:00 +13°C° 0 mm 2 mps 741 mmHg 63%
    07:00 +14°C° 0 mm 1 mps 741 mmHg 60%
    08:00 +15°C° 0 mm 1 mps 741 mmHg 57%
    09:00 +17°C° 0 mm 2 mps 741 mmHg 53%
    10:00 +18°C° 0 mm 2 mps 741 mmHg 49%
    11:00 +19°C° 0.1 mm 2 mps 740 mmHg 50%
    12:00 +19°C° 0.1 mm 3 mps 740 mmHg 51%
    13:00 +19°C° 0.1 mm 3 mps 740 mmHg 52%
    14:00 +19°C° 0.2 mm 3 mps 739 mmHg 58%
    15:00 +18°C° 0.2 mm 4 mps 739 mmHg 63%
    16:00 +17°C° 0.2 mm 4 mps 739 mmHg 69%
    17:00 +16°C° 0.2 mm 3 mps 738 mmHg 77%
    18:00 +15°C° 0.2 mm 2 mps 738 mmHg 84%
    19:00 +13°C° 0.2 mm 1 mps 738 mmHg 91%
    20:00 +13°C° 0 mm 1 mps 738 mmHg 92%
    21:00 +13°C° 0 mm 1 mps 739 mmHg 93%
    22:00 +12°C° 0 mm 1 mps 739 mmHg 93%
    23:00 +12°C° 0 mm 1 mps 739 mmHg 92%

    22 April, Monday

    Time Temperature Precipitation Wind Pressure Humidity
    00:00 +11°C° 0 mm 1 mps 738 mmHg 91%
    01:00 +11°C° 0 mm 1 mps 738 mmHg 90%
    02:00 +11°C° 0 mm 1 mps 738 mmHg 89%
    03:00 +11°C° 0 mm 1 mps 738 mmHg 88%
    04:00 +11°C° 0 mm 1 mps 738 mmHg 88%
    05:00 +12°C° 0 mm 1 mps 737 mmHg 83%
    06:00 +13°C° 0 mm 1 mps 737 mmHg 79%
    07:00 +14°C° 0 mm 1 mps 737 mmHg 75%
    08:00 +16°C° 0 mm 2 mps 737 mmHg 68%
    09:00 +18°C° 0 mm 2 mps 737 mmHg 61%
    10:00 +19°C° 0 mm 2 mps 737 mmHg 54%
    11:00 +20°C° 0 mm 2 mps 737 mmHg 52%
    12:00 +20°C° 0 mm 2 mps 737 mmHg 50%
    13:00 +21°C° 0 mm 2 mps 736 mmHg 47%
    14:00 +20°C° 0 mm 2 mps 736 mmHg 51%
    15:00 +20°C° 0 mm 2 mps 736 mmHg 55%
    16:00 +21°C° 0 mm 1 mps 736 mmHg 59%
    17:00 +19°C° 0 mm 1 mps 735 mmHg 63%
    18:00 +18°C° 0 mm 1 mps 735 mmHg 67%
    19:00 +16°C° 0 mm 2 mps 735 mmHg 71%
    20:00 +16°C° 0.2 mm 2 mps 735 mmHg 73%
    21:00 +14°C° 0.2 mm 3 mps 735 mmHg 75%
    22:00 +14°C° 0.2 mm 3 mps 735 mmHg 77%
    23:00 +14°C° 0 mm 3 mps 735 mmHg 77%

    23 April, Tuesday

    Time Temperature Precipitation Wind Pressure Humidity
    00:00 +13°C° 0 mm 3 mps 735 mmHg 78%
    01:00 +13°C° 0 mm 3 mps 735 mmHg 78%
    02:00 +13°C° 0.1 mm 3 mps 735 mmHg 78%
    03:00 +12°C° 0.1 mm 4 mps 735 mmHg 78%
    04:00 +12°C° 0.1 mm 4 mps 735 mmHg 77%
    05:00 +13°C° 0 mm 4 mps 735 mmHg 75%
    06:00 +14°C° 0 mm 4 mps 735 mmHg 72%
    07:00 +15°C° 0 mm 4 mps 735 mmHg 69%
    08:00 +17°C° 0 mm 4 mps 735 mmHg 63%
    09:00 +19°C° 0 mm 4 mps 736 mmHg 57%
    10:00 +21°C° 0 mm 4 mps 736 mmHg 51%
    11:00 +22°C° 0 mm 4 mps 736 mmHg 48%
    12:00 +23°C° 0 mm 5 mps 736 mmHg 44%
    13:00 +23°C° 0 mm 5 mps 736 mmHg 41%
    14:00 +22°C° 0.1 mm 4 mps 736 mmHg 48%
    15:00 +20°C° 0.1 mm 4 mps 736 mmHg 56%
    16:00 +19°C° 0.1 mm 3 mps 736 mmHg 63%
    17:00 +18°C° 0.1 mm 3 mps 736 mmHg 67%
    18:00 +16°C° 0.1 mm 3 mps 736 mmHg 71%
    19:00 +15°C° 0.1 mm 2 mps 736 mmHg 76%
    20:00 +15°C° 0 mm 2 mps 737 mmHg 77%
    21:00 +13°C° 0 mm 3 mps 737 mmHg 79%
    22:00 +13°C° 0 mm 3 mps 737 mmHg 80%
    23:00 +12°C° 0 mm 3 mps 737 mmHg 80%

    24 April, Wednesday

    Time Temperature Precipitation Wind Pressure Humidity
    00:00 +12°C° 0 mm 3 mps 738 mmHg 81%
    01:00 +13°C° 0 mm 2 mps 738 mmHg 81%
    02:00 +12°C° 0 mm 3 mps 738 mmHg 81%
    03:00 +12°C° 0 mm 3 mps 738 mmHg 81%
    04:00 +11°C° 0 mm 3 mps 737 mmHg 81%
    05:00 +13°C° 0 mm 3 mps 738 mmHg 77%
    06:00 +14°C° 0 mm 3 mps 738 mmHg 73%
    07:00 +17°C° 0 mm 3 mps 738 mmHg 69%
    08:00 +19°C° 0 mm 3 mps 738 mmHg 61%
    09:00 +21°C° 0 mm 2 mps 738 mmHg 52%
    10:00 +24°C° 0 mm 2 mps 738 mmHg 43%
    11:00 +25°C° 0 mm 2 mps 738 mmHg 42%
    12:00 +26°C° 0 mm 2 mps 737 mmHg 40%
    13:00 +27°C° 0 mm 2 mps 737 mmHg 38%
    14:00 +26°C° 0 mm 2 mps 737 mmHg 42%
    15:00 +25°C° 0 mm 2 mps 737 mmHg 45%
    16:00 +24°C° 0 mm 3 mps 737 mmHg 49%
    17:00 +21°C° 0 mm 2 mps 737 mmHg 56%
    18:00 +20°C° 0 mm 1 mps 737 mmHg 62%
    19:00 +18°C° 0 mm 1 mps 737 mmHg 68%
    20:00 +18°C° 0 mm 1 mps 738 mmHg 70%
    21:00 +18°C° 0 mm 1 mps 738 mmHg 72%
    22:00 +17°C° 0 mm 2 mps 738 mmHg 74%
    23:00 +16°C° 0 mm 2 mps 738 mmHg 76%
    Show more